McCook, NE

2:20 AM CDT on May 29, 2017 (GMT -0500)
McCook Municipal

Weather History for KMCK - December, 2011

Change the Weather History Date:

Wednesday, December 21, 2011

  Actual Average Record
Temperature  
Mean Temperature 35 °F 27 °F  
Max Temperature 49 °F 40 °F 66 °F (1933)
Min Temperature 21 °F 14 °F -19 °F (1983)
Degree Days  
Heating Degree Days 30    
Moisture  
Dew Point 25 °F    
Average Humidity 73    
Maximum Humidity 92    
Minimum Humidity 46    
Precipitation  
Precipitation T in 0.02 in 0.20 in (1963)
Month to date precipitation 0.45 0.44  
Year to date precipitation 19.65 22.33  
Sea Level Pressure  
Sea Level Pressure 29.86 in    
Wind  
Wind Speed 10 mph (NNW)    
Max Wind Speed 18 mph    
Max Gust Speed 24 mph    
Visibility 10 miles    
Events Snow    
T = Trace of Precipitation, MM = Missing Value Source: NWS Daily Summary

Daily Weather History Graph

Daily Weather History Graph

Search for Another Location

Airport or City:

Trip Planner

Search our weather history database for the weather conditions in past years. The results will help you decide how hot, cold, wet, or windy it might be!

Date:

Astronomy

Dec. 21, 2011 Rise Set
Actual Time 8:01 AM CST 5:19 PM CST
Civil Twilight 7:30 AM CST 5:50 PM CST
Nautical Twilight 6:56 AM CST 6:24 PM CST
Astronomical Twilight 6:23 AM CST 6:57 PM CST
Moon 4:36 AM CST (12/21) 2:40 PM CST (12/21)
Length of Visible Light 10h 19m
Length of Day
9h 18m
Waning Crescent, 12% of the Moon is Illuminated
Dec 21
Waning Crescent
Dec 24
New
Jan 1
First Quarter
Jan 9
Full
Jan 16
Last Quarter

Hourly Weather History & Observations

Time (CST) Temp. Windchill Dew Point Humidity Pressure Visibility Wind Dir Wind Speed Gust Speed Precip Events Conditions
12:53 AM 25.0 °F 15.5 °F 21.0 °F 85% 29.81 in 10.0 mi West 9.2 mph - N/A   Clear
1:53 AM 27.0 °F 16.7 °F 21.9 °F 81% 29.79 in 10.0 mi West 11.5 mph - N/A   Clear
2:53 AM 24.1 °F 13.7 °F 19.9 °F 84% 29.79 in 10.0 mi West 10.4 mph - N/A   Clear
3:53 AM 25.0 °F 14.8 °F 19.9 °F 81% 29.77 in 10.0 mi WNW 10.4 mph - N/A   Clear
4:53 AM 25.0 °F 13.6 °F 19.0 °F 78% 29.77 in 10.0 mi West 12.7 mph - N/A   Clear
5:53 AM 21.9 °F 12.5 °F 18.0 °F 85% 29.79 in 10.0 mi WSW 8.1 mph - N/A   Clear
6:53 AM 21.9 °F 12.5 °F 18.0 °F 85% 29.81 in 10.0 mi WSW 8.1 mph - N/A   Clear
7:53 AM 24.1 °F 14.4 °F 19.0 °F 81% 29.83 in 10.0 mi West 9.2 mph - N/A   Clear
8:53 AM 25.0 °F 17.1 °F 19.9 °F 81% 29.84 in 10.0 mi SW 6.9 mph - N/A   Clear
9:53 AM 30.0 °F 23.2 °F 21.9 °F 72% 29.83 in 10.0 mi WNW 6.9 mph - N/A   Clear
10:53 AM 36.0 °F - 26.1 °F 67% 29.84 in 10.0 mi Calm Calm - N/A   Clear
11:53 AM 44.6 °F 38.4 °F 28.4 °F 53% 29.77 in 10.0 mi North 12.7 mph - N/A   Clear
12:53 PM 46.0 °F 42.5 °F 28.0 °F 50% 29.81 in 10.0 mi North 6.9 mph - N/A   Clear
1:53 PM 46.9 °F - 28.0 °F 48% 29.80 in 10.0 mi NE 4.6 mph - N/A   Clear
2:53 PM 48.0 °F - 28.0 °F 46% 29.81 in 10.0 mi Calm Calm - N/A   Clear
3:53 PM 46.0 °F 43.9 °F 28.9 °F 51% 29.82 in 10.0 mi NE 4.6 mph - N/A   Overcast
4:53 PM 41.0 °F 36.4 °F 30.0 °F 65% 29.85 in 10.0 mi NE 6.9 mph - N/A   Overcast
5:53 PM 39.0 °F 30.6 °F 28.9 °F 67% 29.89 in 10.0 mi NNE 15.0 mph - N/A   Overcast
6:53 PM 37.0 °F 27.0 °F 28.0 °F 70% 29.92 in 10.0 mi North 18.4 mph - N/A   Overcast
7:53 PM 36.0 °F 26.3 °F 28.9 °F 76% 29.96 in 10.0 mi NNE 16.1 mph - N/A   Overcast
8:53 PM 35.1 °F 26.4 °F 30.0 °F 82% 30.01 in 10.0 mi North 12.7 mph - N/A   Mostly Cloudy
9:53 PM 35.1 °F 24.8 °F 30.9 °F 85% 30.02 in 10.0 mi NNE 17.3 mph 24.2 mph N/A   Overcast
10:30 PM 35.6 °F 26.2 °F 30.2 °F 81% 29.98 in 10.0 mi NNE 15.0 mph - N/A   Overcast
10:53 PM 33.8 °F 23.2 °F 30.2 °F 87% 30.00 in 10.0 mi North 17.3 mph - N/A   Overcast
11:53 PM 33.1 °F 22.6 °F 30.9 °F 92% 30.07 in 4.0 mi NNE 16.1 mph 24.2 mph 0.00 in Snow Light Snow